C/2014 Q1 ( PanSTARRS )

Japanese version
Home page
Updated on March 25, 2017

---------------------------------------------------------------------

* Profile

Discovery Date August 16, 2014
Magnitude 18.4 mag
Discoverer Pan-STARRS 1 telescope (Haleakala)

* Pictures

* Orbital Elements

Epoch 2015 June 27.0 TT = JDT 2457200.5
T 2015 July 6.51263 TT                                  MPCW
q   0.3145607            (2000.0)            P               Q
z  +0.0010503      Peri.  120.05278     -0.59120624     -0.79977461
                   Node     8.76144     +0.26771620     -0.31635221
e   0.9996696      Incl.   43.10938     +0.76079118     -0.51017826
From 679 observations 2014 Aug. 16-2016 May 13, mean residual 0".5.
     Nongravitational parameters A1 = +1.07, A2 = +0.2694.

* Finding Charts

* Magnitudes Graph

        m1 = 8.5 + 5 log d +  8.5 log r(t - 4)  [   ,117]  (             - 2015 Oct. 31)
        m1 = 6.0 + 5 log d + 15.0 log r         [117,   ]  (2015 Oct. 31 -             )

---------------------------------------------------------------------

The orbital elements are published on M.P.E.C. 2016-M09.
The charts are made with StellaNavigator Ver.8 (AstroArts).
The magnitudes graphs are made with Comet for Windows.

---------------------------------------------------------------------

Copyright(C) Seiichi Yoshida (comet@aerith.net). All rights reserved.